ISR45 LLBG-LLER

Flight info

Callsign ISR45
Flight time 0h 36m
Altitude 22000
Route TOMAL J10 NURIT
Aircraft A320/M-SDE3FGHIRWY/LB1

Departure

Time 2026-05-01 14:48
Airport Ben Gurion International Airport (LLBG)

Arrival

Time 2026-05-01 15:24
Airport Ramon International Airport (LLER)
Time Latitude Longitude Altitude Speed Heading
2026-05-01 14:32 32.00046 34.88344 118 ft 0 kts 211°
2026-05-01 14:42 32.00048 34.88345 115 ft 2 kts 211°
2026-05-01 14:42 32.00069 34.88361 115 ft 4 kts 223°
2026-05-01 14:43 32.00082 34.88383 120 ft 4 kts 279°
2026-05-01 14:43 32.00080 34.88393 120 ft 0 kts 301°
2026-05-01 14:44 32.00080 34.88392 120 ft 0 kts 301°
2026-05-01 14:44 32.00096 34.88363 119 ft 9 kts 302°
2026-05-01 14:45 32.00165 34.88316 117 ft 16 kts 12°
2026-05-01 14:45 32.00122 34.88593 119 ft 23 kts 120°
2026-05-01 14:45 32.00035 34.88770 118 ft 26 kts 120°
2026-05-01 14:46 31.99948 34.88960 118 ft 27 kts 111°
2026-05-01 14:46 32.00142 34.89132 119 ft 20 kts 324°
2026-05-01 14:46 32.00271 34.88901 119 ft 62 kts 302°
2026-05-01 14:47 32.00602 34.88262 118 ft 118 kts 301°
2026-05-01 14:47 32.01104 34.87281 141 ft 158 kts 301°
2026-05-01 14:47 32.01676 34.86161 635 ft 161 kts 302°
2026-05-01 14:48 32.01597 34.83733 1771 ft 171 kts 225°
2026-05-01 14:48 32.00477 34.83139 2020 ft 193 kts 180°
2026-05-01 14:48 31.98422 34.85210 2886 ft 218 kts 118°
2026-05-01 14:49 31.97195 34.88566 3986 ft 228 kts 113°
2026-05-01 14:49 31.95908 34.92234 5078 ft 252 kts 114°
2026-05-01 14:50 31.94979 34.94776 6049 ft 258 kts 114°
2026-05-01 14:50 31.92924 35.00182 7457 ft 293 kts 116°
2026-05-01 14:51 31.92076 35.02376 8030 ft 303 kts 116°
2026-05-01 14:51 31.90308 35.06939 9559 ft 310 kts 116°
2026-05-01 14:52 31.88459 35.11692 10485 ft 338 kts 116°
2026-05-01 14:52 31.87452 35.14284 10782 ft 354 kts 116°
2026-05-01 14:52 31.85369 35.19656 11947 ft 366 kts 116°
2026-05-01 14:53 31.84306 35.22403 12604 ft 370 kts 116°
2026-05-01 14:53 31.83232 35.25163 13266 ft 373 kts 116°
2026-05-01 14:53 31.82142 35.27958 13836 ft 379 kts 116°
2026-05-01 14:53 31.81038 35.30789 14353 ft 383 kts 116°
2026-05-01 14:54 31.79921 35.33653 14889 ft 387 kts 116°
2026-05-01 14:54 31.78795 35.36540 15436 ft 390 kts 116°
2026-05-01 14:54 31.77629 35.39431 15973 ft 392 kts 121°
2026-05-01 14:54 31.76051 35.42023 16495 ft 391 kts 136°
2026-05-01 14:55 31.74005 35.44118 16905 ft 390 kts 150°
2026-05-01 14:55 31.72063 35.45378 16992 ft 386 kts 162°
2026-05-01 14:55 31.69520 35.46265 17023 ft 379 kts 175°
2026-05-01 14:55 31.66923 35.46508 17021 ft 372 kts 186°
2026-05-01 14:56 31.64381 35.46155 17023 ft 366 kts 196°
2026-05-01 14:56 31.61923 35.45566 17021 ft 366 kts 196°
2026-05-01 14:56 31.59394 35.44978 17022 ft 366 kts 195°
2026-05-01 14:56 31.56931 35.44425 17017 ft 366 kts 195°
2026-05-01 14:57 31.54389 35.43865 17019 ft 366 kts 195°
2026-05-01 14:57 31.49380 35.42768 17022 ft 366 kts 195°
2026-05-01 14:57 31.46915 35.42221 17047 ft 365 kts 195°
2026-05-01 14:58 31.44414 35.41665 17041 ft 366 kts 195°
2026-05-01 14:58 31.41912 35.41110 17038 ft 366 kts 195°
2026-05-01 14:58 31.39409 35.40557 17034 ft 366 kts 195°
2026-05-01 14:58 31.36901 35.40001 17037 ft 366 kts 195°
2026-05-01 14:59 31.34399 35.39444 17035 ft 366 kts 195°
2026-05-01 14:59 31.31870 35.39019 17016 ft 369 kts 190°
2026-05-01 14:59 31.29313 35.38746 17019 ft 369 kts 190°
2026-05-01 14:59 31.26753 35.38480 17022 ft 369 kts 190°
2026-05-01 15:00 31.21633 35.37955 17022 ft 369 kts 190°
2026-05-01 15:00 31.19077 35.37688 17027 ft 369 kts 190°
2026-05-01 15:00 31.16520 35.37416 17039 ft 369 kts 190°
2026-05-01 15:01 31.13965 35.37147 17037 ft 369 kts 190°
2026-05-01 15:01 31.11404 35.36883 17033 ft 369 kts 190°
2026-05-01 15:01 31.08844 35.36622 17029 ft 369 kts 190°
2026-05-01 15:01 31.06286 35.36359 17031 ft 368 kts 190°
2026-05-01 15:02 31.03735 35.36097 17034 ft 368 kts 190°
2026-05-01 15:02 31.02873 35.36009 17034 ft 368 kts 190°
2026-05-01 15:02 30.98643 35.35578 17032 ft 367 kts 190°
2026-05-01 15:02 30.96095 35.35312 17029 ft 366 kts 192°
2026-05-01 15:03 30.93628 35.34712 17015 ft 360 kts 203°
2026-05-01 15:03 30.91322 35.33643 17014 ft 356 kts 208°
2026-05-01 15:03 30.89043 35.32509 17017 ft 356 kts 208°
2026-05-01 15:03 30.86767 35.31376 17023 ft 356 kts 207°
2026-05-01 15:04 30.84487 35.30246 17023 ft 356 kts 207°
2026-05-01 15:04 30.82206 35.29121 17021 ft 356 kts 207°
2026-05-01 15:04 30.79925 35.27998 17027 ft 356 kts 207°
2026-05-01 15:04 30.77646 35.26879 17048 ft 355 kts 207°
2026-05-01 15:05 30.75368 35.25762 17022 ft 355 kts 207°
2026-05-01 15:05 30.73094 35.24646 17024 ft 355 kts 207°
2026-05-01 15:05 30.70819 35.23527 17019 ft 356 kts 208°
2026-05-01 15:05 30.68569 35.22419 17009 ft 356 kts 208°
2026-05-01 15:06 30.66288 35.21297 17005 ft 356 kts 208°
2026-05-01 15:06 30.64006 35.20174 16999 ft 357 kts 208°
2026-05-01 15:06 30.61720 35.19052 16997 ft 357 kts 207°
2026-05-01 15:06 30.59432 35.17931 16997 ft 357 kts 208°
2026-05-01 15:07 30.57142 35.16810 16998 ft 358 kts 207°
2026-05-01 15:07 30.54744 35.15967 16998 ft 364 kts 195°
2026-05-01 15:07 30.52238 35.15486 16998 ft 365 kts 194°
2026-05-01 15:07 30.49729 35.15011 16999 ft 365 kts 194°
2026-05-01 15:08 30.47222 35.14531 16976 ft 365 kts 194°
2026-05-01 15:08 30.44716 35.14049 16980 ft 365 kts 194°
2026-05-01 15:08 30.42212 35.13566 16982 ft 365 kts 194°
2026-05-01 15:08 30.39712 35.13081 16981 ft 365 kts 194°
2026-05-01 15:09 30.37210 35.12595 16983 ft 364 kts 194°
2026-05-01 15:09 30.34707 35.12108 16979 ft 364 kts 194°
2026-05-01 15:09 30.32207 35.11623 16986 ft 364 kts 194°
2026-05-01 15:09 30.29704 35.11146 16992 ft 364 kts 194°
2026-05-01 15:10 30.27201 35.10677 16994 ft 365 kts 194°
2026-05-01 15:10 30.22157 35.09736 16639 ft 374 kts 194°
2026-05-01 15:10 30.19590 35.09230 16055 ft 373 kts 194°
2026-05-01 15:11 30.17049 35.08705 15524 ft 370 kts 195°
2026-05-01 15:11 30.12006 35.07645 14465 ft 367 kts 194°
2026-05-01 15:11 30.09502 35.07119 13933 ft 365 kts 194°
2026-05-01 15:12 30.07032 35.06604 13355 ft 365 kts 194°
2026-05-01 15:12 30.02176 35.05639 12952 ft 341 kts 194°
2026-05-01 15:12 29.99875 35.05197 12843 ft 329 kts 194°
2026-05-01 15:13 29.93332 35.03935 12450 ft 316 kts 194°
2026-05-01 15:14 29.88982 35.03079 12183 ft 317 kts 194°
2026-05-01 15:14 29.86789 35.02649 11658 ft 322 kts 194°
2026-05-01 15:14 29.82534 35.01815 11347 ft 291 kts 199°
2026-05-01 15:15 29.78929 35.00169 10455 ft 274 kts 208°
2026-05-01 15:15 29.75457 34.98423 9370 ft 273 kts 208°
2026-05-01 15:16 29.71986 34.96687 8298 ft 270 kts 208°
2026-05-01 15:16 29.68535 34.94965 7337 ft 278 kts 208°
2026-05-01 15:17 29.65086 34.93259 6746 ft 262 kts 207°
2026-05-01 15:18 29.60147 34.90811 5415 ft 255 kts 207°
2026-05-01 15:18 29.58543 34.90064 5204 ft 247 kts 199°
2026-05-01 15:19 29.53686 34.91207 4901 ft 251 kts 134°
2026-05-01 15:19 29.52546 34.94830 4167 ft 246 kts 78°
2026-05-01 15:19 29.53078 34.96644 3846 ft 236 kts 53°
2026-05-01 15:20 29.55570 34.98617 3371 ft 217 kts
2026-05-01 15:20 29.56559 34.98667 3198 ft 213 kts 351°
2026-05-01 15:20 29.58043 34.98409 2942 ft 213 kts 349°
2026-05-01 15:21 29.59482 34.98149 2699 ft 211 kts 348°
2026-05-01 15:21 29.60903 34.98100 2454 ft 200 kts 11°
2026-05-01 15:21 29.62224 34.98469 2193 ft 189 kts 13°
2026-05-01 15:21 29.63434 34.98808 1909 ft 171 kts 14°
2026-05-01 15:22 29.65519 34.99391 1439 ft 147 kts
2026-05-01 15:22 29.66493 34.99666 1259 ft 145 kts
2026-05-01 15:22 29.67485 34.99941 1053 ft 148 kts
2026-05-01 15:23 29.68480 35.00218 868 ft 146 kts
2026-05-01 15:23 29.69448 35.00490 664 ft 142 kts 12°
2026-05-01 15:23 29.70395 35.00761 445 ft 138 kts
2026-05-01 15:23 29.71343 35.01026 297 ft 141 kts
2026-05-01 15:24 29.72185 35.01258 265 ft 103 kts 12°
2026-05-01 15:24 29.72719 35.01403 259 ft 59 kts 13°
2026-05-01 15:24 29.73089 35.01503 258 ft 46 kts 11°
2026-05-01 15:24 29.73337 35.01472 256 ft 22 kts 336°
2026-05-01 15:25 29.73339 35.01369 252 ft 16 kts 201°
2026-05-01 15:25 29.73219 35.01323 252 ft 21 kts 197°
2026-05-01 15:25 29.73072 35.01281 252 ft 23 kts 193°
2026-05-01 15:25 29.72914 35.01237 252 ft 24 kts 194°
2026-05-01 15:26 29.72746 35.01188 252 ft 26 kts 194°
2026-05-01 15:26 29.72567 35.01134 252 ft 27 kts 195°
2026-05-01 15:26 29.72399 35.01060 252 ft 21 kts 241°
2026-05-01 15:26 29.72424 35.00928 251 ft 17 kts 283°
2026-05-01 15:27 29.72453 35.00788 251 ft 13 kts 283°
2026-05-01 15:27 29.72459 35.00757 251 ft 0 kts 283°